Hourly Data Report for May 29, 2020

STE-ANNE-DE-BELLEVUE 1
QUEBEC
Current Station Operator: ECCC - MSC

45°25'38.000" N
73°55'45.000" W
39.00 m
702FHL8
71377
WVQ

Download Data

Hourly Data (May 2020)
Hourly Data Report for May 29, 2020
TIME
LST
Temp Definition
°C
Dew Point Definition
°C
Rel Hum Definition
%
Precip. Amount Definition
mm

Wind Dir Definition
10's deg

Wind Spd Definition
km/h
Visibility Definition
km
Stn Press Definition
kPa
Hmdx Definition


Wind Chill Definition


Weather Definition


00:00 23.9 18.9 74 0.0 25 17   100.52 31   LegendNANA
01:00 23.1 18.1 74 0.0 22 21   100.54 29   LegendNANA
02:00 21.8 17.3 75 0.0 22 14   100.56 27   LegendNANA
03:00 21.0 17.3 79 0.0 23 16   100.56 26   LegendNANA
04:00 20.4 17.1 81 0.0 22 11   100.59 26   LegendNANA
05:00 21.1 17.3 79 0.0 23 11   100.55 27   LegendNANA
06:00 21.6 17.4 77 0.0 19 8   100.56 27   LegendNANA
07:00 24.0 18.6 72 0.0 23 15   100.57 30   LegendNANA
08:00 26.1 19.1 65 0.0 23 24   100.54 33   LegendNANA
09:00 27.1 18.7 60 0.0 23 27   100.51 34   LegendNANA
10:00 28.0 17.1 52 0.0 22 25   100.46 33   LegendNANA
11:00 29.1 16.5 47 0.0 22 25   100.41 34   LegendNANA
12:00 29.7 16.1 44 0.0 24 21   100.34 34   LegendNANA
13:00 29.2 15.4 43 0.0 22 20   100.28 33   LegendNANA
14:00 29.8 16.3 44 0.0 22 16   100.15 35   LegendNANA
15:00 29.2 16.4 46 0.0 23 18   100.09 34   LegendNANA
16:00 28.4 18.2 54 0.0 20 19   99.99 35   LegendNANA
17:00 27.3 17.7 56 0.0 23 14   100.00 33   LegendNANA
18:00 24.2 18.9 72 0.0 22 18   100.06 31   LegendNANA
19:00 21.9 19.6 87 0.6 22 17   100.05 29   LegendNANA
20:00 21.3 18.5 84 0.0 23 14   100.02 28   LegendNANA
21:00 21.1 17.7 81 0.0 22 17   99.99 27   LegendNANA
22:00 20.6 17.4 82 0.0 23 17   100.00 26   LegendNANA
23:00 20.3 17.3 83 0.0 23 15   99.97 26   LegendNANA

Notes on Data Quality.

Legend

  • E = Estimated
  • M = Missing
  • NA = Not Available*
  • [empty] = Indicates an unobserved value
Date modified: